Time,TemperatureF,DewpointF,PressureIn,WindDirection,WindDirectionDegrees,WindSpeedMPH,WindSpeedGustMPH,Humidity,HourlyPrecipIn,Conditions,Clouds,dailyrainin,SolarRadiationWatts/m^2,SoftwareType,DateUTC
2013-08-21 00:05:00,68.1,11.6,30.07,WNW,300,0.0,0.0,11,0.00,,,0.00,0,WeatherHawk,2013-08-21 07:05:00,
2013-08-21 00:10:00,66.8,12.6,30.08,NW,310,0.0,0.0,12,0.00,,,0.00,0,WeatherHawk,2013-08-21 07:10:00,
2013-08-21 00:15:00,66.5,12.3,30.08,NNW,348,0.0,0.0,12,0.00,,,0.00,1,WeatherHawk,2013-08-21 07:15:00,
2013-08-21 00:20:00,66.4,12.3,30.08,North,1,0.0,0.0,12,0.00,,,0.00,0,WeatherHawk,2013-08-21 07:20:00,
2013-08-21 00:25:00,66.1,10.1,30.08,WSW,248,0.0,0.0,11,0.00,,,0.00,0,WeatherHawk,2013-08-21 07:25:00,
2013-08-21 00:30:00,65.8,13.6,30.09,West,270,0.0,0.0,13,0.00,,,0.00,0,WeatherHawk,2013-08-21 07:30:00,
2013-08-21 00:35:00,64.5,14.3,30.08,WNW,292,0.0,0.0,14,0.00,,,0.00,0,WeatherHawk,2013-08-21 07:35:00,
2013-08-21 00:40:00,64.1,15.5,30.08,WNW,292,0.0,0.0,15,0.00,,,0.00,0,WeatherHawk,2013-08-21 07:40:00,
2013-08-21 00:45:00,65.4,16.5,30.09,NW,312,0.0,0.0,15,0.00,,,0.00,1,WeatherHawk,2013-08-21 07:45:00,
2013-08-21 00:50:00,65.6,16.7,30.09,NW,312,0.0,0.0,15,0.00,,,0.00,0,WeatherHawk,2013-08-21 07:50:00,
2013-08-21 00:55:00,64.7,14.5,30.09,West,273,0.0,0.0,14,0.00,,,0.00,0,WeatherHawk,2013-08-21 07:55:00,
2013-08-21 01:00:00,64.9,12.9,30.09,WSW,257,0.0,0.0,13,0.00,,,0.00,0,WeatherHawk,2013-08-21 08:00:00,
2013-08-21 01:05:00,64.9,14.6,30.09,WNW,291,0.0,0.0,14,0.00,,,0.00,0,WeatherHawk,2013-08-21 08:05:00,
2013-08-21 01:11:00,64.5,17.3,30.09,West,273,0.0,0.0,16,0.00,,,0.00,0,WeatherHawk,2013-08-21 08:11:00,
2013-08-21 01:16:00,64.0,15.4,30.09,NNW,330,0.0,0.0,15,0.00,,,0.00,0,WeatherHawk,2013-08-21 08:16:00,
2013-08-21 01:21:00,60.9,14.4,30.09,North,11,0.0,0.0,16,0.00,,,0.00,0,WeatherHawk,2013-08-21 08:21:00,
2013-08-21 01:26:00,64.1,15.5,30.09,WSW,250,0.0,0.0,15,0.00,,,0.00,0,WeatherHawk,2013-08-21 08:26:00,
2013-08-21 01:31:00,64.5,14.3,30.09,North,351,0.0,0.0,14,0.00,,,0.00,0,WeatherHawk,2013-08-21 08:31:00,
2013-08-21 01:36:00,63.3,16.4,30.09,WNW,289,0.0,0.0,16,0.00,,,0.00,0,WeatherHawk,2013-08-21 08:36:00,
2013-08-21 01:41:00,62.7,15.9,30.09,SW,215,0.0,0.0,16,0.00,,,0.00,0,WeatherHawk,2013-08-21 08:41:00,
2013-08-21 01:47:00,63.5,16.5,30.09,WNW,296,0.0,0.0,16,0.00,,,0.00,0,WeatherHawk,2013-08-21 08:47:00,
2013-08-21 01:52:00,62.3,14.1,30.09,SSW,194,0.0,0.0,15,0.00,,,0.00,0,WeatherHawk,2013-08-21 08:52:00,
2013-08-21 01:57:00,63.2,14.8,30.09,NW,311,0.0,0.0,15,0.00,,,0.00,0,WeatherHawk,2013-08-21 08:57:00,
2013-08-21 02:02:00,62.3,15.6,30.09,North,8,0.0,0.0,16,0.00,,,0.00,0,WeatherHawk,2013-08-21 09:02:00,
2013-08-21 02:07:00,62.0,16.7,30.09,NW,324,0.0,0.0,17,0.00,,,0.00,0,WeatherHawk,2013-08-21 09:07:00,
2013-08-21 02:12:00,60.9,15.8,30.09,NW,320,0.0,0.0,17,0.00,,,0.00,0,WeatherHawk,2013-08-21 09:12:00,
2013-08-21 02:17:00,60.8,17.0,30.09,NW,320,0.0,0.0,18,0.00,,,0.00,0,WeatherHawk,2013-08-21 09:17:00,
2013-08-21 02:22:00,61.5,17.6,30.09,SSW,201,0.0,0.0,18,0.00,,,0.00,0,WeatherHawk,2013-08-21 09:22:00,
2013-08-21 02:27:00,61.7,13.6,30.09,WSW,256,0.0,0.0,15,0.00,,,0.00,0,WeatherHawk,2013-08-21 09:27:00,
2013-08-21 02:33:00,62.4,17.0,30.09,West,262,1.0,0.0,17,0.00,,,0.00,0,WeatherHawk,2013-08-21 09:33:00,
2013-08-21 02:38:00,61.0,15.9,30.09,SSW,207,0.0,0.0,17,0.00,,,0.00,0,WeatherHawk,2013-08-21 09:38:00,
2013-08-21 02:44:00,59.7,13.5,30.09,SSE,160,0.0,0.0,16,0.00,,,0.00,1,WeatherHawk,2013-08-21 09:44:00,
2013-08-21 02:50:00,60.4,16.7,30.09,WSW,243,0.0,0.0,18,0.00,,,0.00,0,WeatherHawk,2013-08-21 09:50:00,
2013-08-21 02:55:00,60.7,15.6,30.09,SE,138,0.0,0.0,17,0.00,,,0.00,0,WeatherHawk,2013-08-21 09:55:00,
2013-08-21 03:00:00,61.3,16.1,30.09,NNW,331,3.0,0.0,17,0.00,,,0.00,1,WeatherHawk,2013-08-21 10:00:00,
2013-08-21 03:05:00,60.1,16.5,30.09,NW,314,0.0,0.0,18,0.00,,,0.00,0,WeatherHawk,2013-08-21 10:05:00,
2013-08-21 03:10:00,59.3,14.5,30.09,SW,216,0.0,0.0,17,0.00,,,0.00,0,WeatherHawk,2013-08-21 10:10:00,
2013-08-21 03:15:00,60.0,16.4,30.08,West,281,0.0,0.0,18,0.00,,,0.00,0,WeatherHawk,2013-08-21 10:15:00,
2013-08-21 03:20:00,59.7,12.0,30.08,SW,234,2.0,0.0,15,0.00,,,0.00,0,WeatherHawk,2013-08-21 10:20:00,
2013-08-21 03:26:00,60.2,13.8,30.08,WSW,258,0.0,0.0,16,0.00,,,0.00,0,WeatherHawk,2013-08-21 10:26:00,
2013-08-21 03:31:00,59.7,14.8,30.08,West,265,2.0,0.0,17,0.00,,,0.00,1,WeatherHawk,2013-08-21 10:31:00,
2013-08-21 03:36:00,58.9,15.5,30.08,SW,224,0.0,0.0,18,0.00,,,0.00,0,WeatherHawk,2013-08-21 10:36:00,
2013-08-21 03:41:00,58.7,17.8,30.08,WNW,285,0.0,0.0,20,0.00,,,0.00,0,WeatherHawk,2013-08-21 10:41:00,
2013-08-21 03:47:00,58.2,19.5,30.08,WSW,251,0.0,0.0,22,0.00,,,0.00,0,WeatherHawk,2013-08-21 10:47:00,
2013-08-21 03:52:00,58.1,19.5,30.08,WSW,252,0.0,0.0,22,0.00,,,0.00,0,WeatherHawk,2013-08-21 10:52:00,
2013-08-21 03:57:00,59.2,19.3,30.08,West,276,0.0,0.0,21,0.00,,,0.00,1,WeatherHawk,2013-08-21 10:57:00,
2013-08-21 04:02:00,57.3,16.6,30.08,WSW,242,0.0,0.0,20,0.00,,,0.00,0,WeatherHawk,2013-08-21 11:02:00,
2013-08-21 04:07:00,57.5,17.9,30.08,West,260,0.0,0.0,21,0.00,,,0.00,0,WeatherHawk,2013-08-21 11:07:00,
2013-08-21 04:12:00,58.0,18.3,30.08,West,270,0.0,0.0,21,0.00,,,0.00,0,WeatherHawk,2013-08-21 11:12:00,
2013-08-21 04:17:00,57.8,15.8,30.08,WSW,247,0.0,0.0,19,0.00,,,0.00,0,WeatherHawk,2013-08-21 11:17:00,
2013-08-21 04:22:00,59.1,18.0,30.08,West,267,1.0,0.0,20,0.00,,,0.00,0,WeatherHawk,2013-08-21 11:22:00,
2013-08-21 04:27:00,58.1,14.8,30.08,SW,226,0.0,0.0,18,0.00,,,0.00,0,WeatherHawk,2013-08-21 11:27:00,
2013-08-21 04:32:00,57.3,16.6,30.09,WSW,250,0.0,0.0,20,0.00,,,0.00,0,WeatherHawk,2013-08-21 11:32:00,
2013-08-21 04:37:00,57.5,16.8,30.08,SW,236,0.0,0.0,20,0.00,,,0.00,0,WeatherHawk,2013-08-21 11:37:00,
2013-08-21 04:42:00,57.5,17.9,30.08,WSW,244,0.0,0.0,21,0.00,,,0.00,0,WeatherHawk,2013-08-21 11:42:00,
2013-08-21 04:47:00,57.6,18.0,30.08,SW,230,0.0,0.0,21,0.00,,,0.00,0,WeatherHawk,2013-08-21 11:47:00,
2013-08-21 04:52:00,56.9,17.3,30.08,SW,230,0.0,0.0,21,0.00,,,0.00,0,WeatherHawk,2013-08-21 11:52:00,
2013-08-21 04:57:00,56.4,16.9,30.08,SSE,159,0.0,0.0,21,0.00,,,0.00,0,WeatherHawk,2013-08-21 11:57:00,
2013-08-21 05:02:00,56.3,19.0,30.08,South,186,0.0,0.0,23,0.00,,,0.00,0,WeatherHawk,2013-08-21 12:02:00,
2013-08-21 05:07:00,56.7,20.4,30.08,South,186,0.0,0.0,24,0.00,,,0.00,0,WeatherHawk,2013-08-21 12:07:00,
2013-08-21 05:12:00,56.7,20.3,30.09,South,186,0.0,0.0,24,0.00,,,0.00,0,WeatherHawk,2013-08-21 12:12:00,
2013-08-21 05:17:00,56.9,21.5,30.09,SSE,164,0.0,0.0,25,0.00,,,0.00,0,WeatherHawk,2013-08-21 12:17:00,
2013-08-21 05:23:00,57.5,21.0,30.09,SE,144,0.0,0.0,24,0.00,,,0.00,1,WeatherHawk,2013-08-21 12:23:00,
2013-08-21 05:28:00,57.5,20.0,30.09,SE,144,0.0,0.0,23,0.00,,,0.00,0,WeatherHawk,2013-08-21 12:28:00,
2013-08-21 05:33:00,55.9,18.6,30.09,South,188,0.0,0.0,23,0.00,,,0.00,0,WeatherHawk,2013-08-21 12:33:00,
2013-08-21 05:38:00,57.1,20.6,30.09,South,169,0.0,0.0,24,0.00,,,0.00,0,WeatherHawk,2013-08-21 12:38:00,
2013-08-21 05:43:00,56.0,18.7,30.09,South,169,0.0,0.0,23,0.00,,,0.00,0,WeatherHawk,2013-08-21 12:43:00,
2013-08-21 05:49:00,55.6,20.3,30.10,South,169,0.0,0.0,25,0.00,,,0.00,0,WeatherHawk,2013-08-21 12:49:00,
2013-08-21 05:54:00,56.0,20.7,30.09,WSW,250,0.0,0.0,25,0.00,,,0.00,0,WeatherHawk,2013-08-21 12:54:00,
2013-08-21 05:59:00,55.3,20.1,30.09,WSW,244,0.0,0.0,25,0.00,,,0.00,0,WeatherHawk,2013-08-21 12:59:00,
2013-08-21 06:04:00,55.7,20.4,30.09,WSW,246,0.0,0.0,25,0.00,,,0.00,0,WeatherHawk,2013-08-21 13:04:00,
2013-08-21 06:09:00,55.4,19.2,30.10,West,268,0.0,0.0,24,0.00,,,0.00,3,WeatherHawk,2013-08-21 13:09:00,
2013-08-21 06:14:00,56.0,19.8,30.09,West,261,0.0,0.0,24,0.00,,,0.00,0,WeatherHawk,2013-08-21 13:14:00,
2013-08-21 06:19:00,56.2,18.9,30.09,WSW,243,0.0,0.0,23,0.00,,,0.00,5,WeatherHawk,2013-08-21 13:19:00,
2013-08-21 06:24:00,55.3,18.2,30.10,WSW,239,0.0,0.0,23,0.00,,,0.00,8,WeatherHawk,2013-08-21 13:24:00,
2013-08-21 06:29:00,55.1,18.9,30.10,SSW,211,0.0,0.0,24,0.00,,,0.00,10,WeatherHawk,2013-08-21 13:29:00,
2013-08-21 06:34:00,55.0,19.8,30.10,SW,220,0.0,0.0,25,0.00,,,0.00,12,WeatherHawk,2013-08-21 13:34:00,
2013-08-21 06:39:00,55.4,19.2,30.10,WSW,244,0.0,0.0,24,0.00,,,0.00,20,WeatherHawk,2013-08-21 13:39:00,
2013-08-21 06:44:00,55.3,21.0,30.10,WSW,251,0.0,0.0,26,0.00,,,0.00,23,WeatherHawk,2013-08-21 13:44:00,
2013-08-21 06:49:00,55.2,20.0,30.10,South,191,0.0,0.0,25,0.00,,,0.00,27,WeatherHawk,2013-08-21 13:49:00,
2013-08-21 06:54:00,55.3,20.1,30.11,SSW,198,0.0,0.0,25,0.00,,,0.00,32,WeatherHawk,2013-08-21 13:54:00,
2013-08-21 06:59:00,55.4,20.2,30.11,South,178,0.0,0.0,25,0.00,,,0.00,36,WeatherHawk,2013-08-21 13:59:00,
2013-08-21 07:04:00,55.3,21.0,30.11,WSW,257,0.0,0.0,26,0.00,,,0.00,41,WeatherHawk,2013-08-21 14:04:00,
2013-08-21 07:09:00,55.1,20.8,30.11,WSW,257,0.0,0.0,26,0.00,,,0.00,48,WeatherHawk,2013-08-21 14:09:00,
2013-08-21 07:14:00,55.6,22.1,30.11,WSW,257,0.0,0.0,27,0.00,,,0.00,56,WeatherHawk,2013-08-21 14:14:00,
2013-08-21 07:20:00,55.7,21.4,30.11,WSW,257,0.0,0.0,26,0.00,,,0.00,62,WeatherHawk,2013-08-21 14:20:00,
2013-08-21 07:25:00,55.9,22.4,30.10,South,185,0.0,0.0,27,0.00,,,0.00,69,WeatherHawk,2013-08-21 14:25:00,
2013-08-21 07:30:00,56.1,23.5,30.11,South,185,0.0,0.0,28,0.00,,,0.00,74,WeatherHawk,2013-08-21 14:30:00,
2013-08-21 07:35:00,56.5,23.0,30.11,SW,222,0.0,0.0,27,0.00,,,0.00,86,WeatherHawk,2013-08-21 14:35:00,
2013-08-21 07:41:00,57.3,22.7,30.11,SW,222,0.0,0.0,26,0.00,,,0.00,127,WeatherHawk,2013-08-21 14:41:00,
2013-08-21 07:46:00,57.1,20.7,30.12,SW,222,0.0,0.0,24,0.00,,,0.00,123,WeatherHawk,2013-08-21 14:46:00,
2013-08-21 07:51:00,58.2,21.6,30.11,SW,222,0.0,0.0,24,0.00,,,0.00,128,WeatherHawk,2013-08-21 14:51:00,
2013-08-21 07:57:00,59.1,21.3,30.12,SW,222,0.0,0.0,23,0.00,,,0.00,123,WeatherHawk,2013-08-21 14:57:00,
2013-08-21 08:02:00,57.3,20.8,30.12,WNW,298,1.0,0.0,24,0.00,,,0.00,131,WeatherHawk,2013-08-21 15:02:00,
2013-08-21 08:07:00,58.4,20.7,30.12,WNW,287,0.0,0.0,23,0.00,,,0.00,128,WeatherHawk,2013-08-21 15:07:00,
2013-08-21 08:12:00,59.2,19.3,30.12,WNW,287,0.0,0.0,21,0.00,,,0.00,144,WeatherHawk,2013-08-21 15:12:00,
2013-08-21 08:17:00,58.3,20.6,30.12,West,259,0.0,0.0,23,0.00,,,0.00,130,WeatherHawk,2013-08-21 15:17:00,
2013-08-21 08:23:00,58.2,19.5,30.12,WSW,238,0.0,0.0,22,0.00,,,0.00,150,WeatherHawk,2013-08-21 15:23:00,
2013-08-21 08:28:00,59.3,21.6,30.12,WSW,253,0.0,0.0,23,0.00,,,0.00,132,WeatherHawk,2013-08-21 15:28:00,
2013-08-21 08:33:00,58.0,19.4,30.11,WNW,289,0.0,0.0,22,0.00,,,0.00,134,WeatherHawk,2013-08-21 15:33:00,
2013-08-21 08:39:00,59.5,19.5,30.11,WSW,247,0.0,0.0,21,0.00,,,0.00,144,WeatherHawk,2013-08-21 15:39:00,
2013-08-21 08:44:00,59.7,20.8,30.12,WSW,250,0.0,0.0,22,0.00,,,0.00,165,WeatherHawk,2013-08-21 15:44:00,
2013-08-21 08:49:00,60.1,18.9,30.12,WSW,250,0.0,0.0,20,0.00,,,0.00,222,WeatherHawk,2013-08-21 15:49:00,
2013-08-21 08:54:00,60.8,18.3,30.12,WSW,258,1.0,0.0,19,0.00,,,0.00,360,WeatherHawk,2013-08-21 15:54:00,
2013-08-21 08:59:00,60.3,15.3,30.12,NW,312,0.0,0.0,17,0.00,,,0.00,382,WeatherHawk,2013-08-21 15:59:00,
2013-08-21 09:04:00,62.0,15.3,30.11,West,279,0.0,0.0,16,0.00,,,0.00,203,WeatherHawk,2013-08-21 16:04:00,
2013-08-21 09:10:00,61.5,16.3,30.11,West,274,0.0,0.0,17,0.00,,,0.00,269,WeatherHawk,2013-08-21 16:10:00,
2013-08-21 09:15:00,61.2,13.2,30.12,WSW,257,0.0,0.0,15,0.00,,,0.00,425,WeatherHawk,2013-08-21 16:15:00,
2013-08-21 09:20:00,65.2,13.1,30.12,WSW,242,0.0,0.0,13,0.00,,,0.00,453,WeatherHawk,2013-08-21 16:20:00,
2013-08-21 09:25:00,68.5,12.0,30.11,SW,218,0.0,0.0,11,0.00,,,0.00,443,WeatherHawk,2013-08-21 16:25:00,
2013-08-21 09:30:00,71.2,14.0,30.11,West,279,0.0,0.0,11,0.00,,,0.00,456,WeatherHawk,2013-08-21 16:30:00,
2013-08-21 09:35:00,66.1,8.0,30.11,West,264,0.0,0.0,10,0.00,,,0.00,467,WeatherHawk,2013-08-21 16:35:00,
2013-08-21 09:40:00,65.9,7.8,30.11,WSW,246,0.0,0.0,10,0.00,,,0.00,303,WeatherHawk,2013-08-21 16:40:00,
2013-08-21 09:45:00,64.6,2.0,30.11,West,280,0.0,0.0,8,0.00,,,0.00,464,WeatherHawk,2013-08-21 16:45:00,
2013-08-21 09:50:00,71.0,6.8,30.11,SSW,207,0.0,0.0,8,0.00,,,0.00,309,WeatherHawk,2013-08-21 16:50:00,
2013-08-21 09:56:00,77.1,8.3,30.10,South,172,0.0,0.0,7,0.00,,,0.00,476,WeatherHawk,2013-08-21 16:56:00,
2013-08-21 10:01:00,71.5,0.9,30.10,WSW,258,0.0,0.0,6,0.00,,,0.00,480,WeatherHawk,2013-08-21 17:01:00,
2013-08-21 10:07:00,68.6,5.0,30.10,West,281,0.0,0.0,8,0.00,,,0.00,486,WeatherHawk,2013-08-21 17:07:00,
2013-08-21 10:12:00,68.2,-1.4,30.10,WNW,296,4.0,0.0,6,0.00,,,0.00,499,WeatherHawk,2013-08-21 17:12:00,
2013-08-21 10:17:00,70.3,8.8,30.10,NW,305,0.0,0.0,9,0.00,,,0.00,511,WeatherHawk,2013-08-21 17:17:00,
2013-08-21 10:22:00,70.0,-4.0,30.10,NW,323,6.0,0.0,5,0.00,,,0.00,552,WeatherHawk,2013-08-21 17:22:00,
2013-08-21 10:27:00,70.6,3.5,30.10,NNW,347,6.0,0.0,7,0.00,,,0.00,369,WeatherHawk,2013-08-21 17:27:00,
2013-08-21 10:32:00,69.7,-4.2,30.10,NNE,12,6.0,0.0,5,0.00,,,0.00,254,WeatherHawk,2013-08-21 17:32:00,
2013-08-21 10:37:00,70.2,0.0,30.09,North,2,6.0,0.0,6,0.00,,,0.00,255,WeatherHawk,2013-08-21 17:37:00,
2013-08-21 10:42:00,70.5,3.4,30.10,North,6,5.0,0.0,7,0.00,,,0.00,239,WeatherHawk,2013-08-21 17:42:00,
2013-08-21 10:47:00,70.8,3.7,30.09,NE,39,7.0,0.0,7,0.00,,,0.00,311,WeatherHawk,2013-08-21 17:47:00,
2013-08-21 10:52:00,71.6,1.0,30.09,NNE,31,6.0,0.0,6,0.00,,,0.00,634,WeatherHawk,2013-08-21 17:52:00,
2013-08-21 10:57:00,73.6,-1.5,30.09,NNE,27,6.0,0.0,5,0.00,,,0.00,598,WeatherHawk,2013-08-21 17:57:00,
2013-08-21 11:02:00,73.3,-1.7,30.09,North,349,4.0,0.0,5,0.00,,,0.00,589,WeatherHawk,2013-08-21 18:02:00,
2013-08-21 11:07:00,74.2,2.8,30.09,NNE,23,9.0,0.0,6,0.00,,,0.00,576,WeatherHawk,2013-08-21 18:07:00,
2013-08-21 11:12:00,73.5,-1.5,30.09,North,0,1.0,0.0,5,0.00,,,0.00,590,WeatherHawk,2013-08-21 18:12:00,
2013-08-21 11:17:00,75.6,7.2,30.08,NNW,331,6.0,0.0,7,0.00,,,0.00,602,WeatherHawk,2013-08-21 18:17:00,
2013-08-21 11:22:00,74.9,3.3,30.08,ESE,115,3.0,0.0,6,0.00,,,0.00,326,WeatherHawk,2013-08-21 18:22:00,
2013-08-21 11:27:00,74.0,6.0,30.09,NNE,32,6.0,0.0,7,0.00,,,0.00,536,WeatherHawk,2013-08-21 18:27:00,
2013-08-21 11:32:00,76.1,7.6,30.08,NNE,31,0.0,0.0,7,0.00,,,0.00,366,WeatherHawk,2013-08-21 18:32:00,
2013-08-21 11:37:00,76.3,10.7,30.09,NNE,26,6.0,0.0,8,0.00,,,0.00,588,WeatherHawk,2013-08-21 18:37:00,
2013-08-21 11:43:00,74.0,-1.2,30.08,North,0,4.0,0.0,5,0.00,,,0.00,254,WeatherHawk,2013-08-21 18:43:00,
2013-08-21 11:48:00,74.7,9.5,30.08,North,6,4.0,0.0,8,0.00,,,0.00,296,WeatherHawk,2013-08-21 18:48:00,
2013-08-21 11:53:00,75.2,9.9,30.08,North,7,4.0,0.0,8,0.00,,,0.00,330,WeatherHawk,2013-08-21 18:53:00,
2013-08-21 11:58:00,74.5,-0.8,30.08,NE,47,0.0,0.0,5,0.00,,,0.00,344,WeatherHawk,2013-08-21 18:58:00,
2013-08-21 12:03:00,77.0,-3.8,30.07,North,11,6.0,0.0,4,0.00,,,0.00,306,WeatherHawk,2013-08-21 19:03:00,
2013-08-21 12:09:00,75.9,0.2,30.08,North,4,4.0,0.0,5,0.00,,,0.00,308,WeatherHawk,2013-08-21 19:09:00,
2013-08-21 12:14:00,76.5,0.6,30.08,NNE,28,1.0,0.0,5,0.00,,,0.00,381,WeatherHawk,2013-08-21 19:14:00,
2013-08-21 12:19:00,75.5,-0.1,30.08,North,351,4.0,0.0,5,0.00,,,0.00,252,WeatherHawk,2013-08-21 19:19:00,
2013-08-21 12:24:00,75.6,-0.1,30.07,North,351,8.0,0.0,5,0.00,,,0.00,782,WeatherHawk,2013-08-21 19:24:00,
2013-08-21 12:29:00,76.1,0.3,30.07,NW,320,11.0,0.0,5,0.00,,,0.00,775,WeatherHawk,2013-08-21 19:29:00,
2013-08-21 12:34:00,76.6,0.7,30.07,North,350,4.0,0.0,5,0.00,,,0.00,521,WeatherHawk,2013-08-21 19:34:00,
2013-08-21 12:39:00,76.9,0.8,30.07,NE,54,2.0,0.0,5,0.00,,,0.00,691,WeatherHawk,2013-08-21 19:39:00,
2013-08-21 12:44:00,77.9,1.6,30.07,NNE,27,4.0,0.0,5,0.00,,,0.00,787,WeatherHawk,2013-08-21 19:44:00,
2013-08-21 12:50:00,79.0,2.3,30.06,NNE,20,4.0,0.0,5,0.00,,,0.00,308,WeatherHawk,2013-08-21 19:50:00,
2013-08-21 12:55:00,77.7,1.4,30.06,NE,41,6.0,0.0,5,0.00,,,0.00,323,WeatherHawk,2013-08-21 19:55:00,
2013-08-21 13:00:00,82.8,5.0,30.05,NNW,331,5.0,0.0,5,0.00,,,0.00,808,WeatherHawk,2013-08-21 20:00:00,
2013-08-21 13:06:00,82.0,4.4,30.05,NNW,344,8.0,0.0,5,0.00,,,0.00,760,WeatherHawk,2013-08-21 20:06:00,
2013-08-21 13:11:00,84.0,5.9,30.05,NNW,346,6.0,0.0,5,0.00,,,0.00,727,WeatherHawk,2013-08-21 20:11:00,
2013-08-21 13:17:00,81.4,4.0,30.04,NNW,329,0.0,0.0,5,0.00,,,0.00,359,WeatherHawk,2013-08-21 20:17:00,
2013-08-21 13:22:00,81.0,3.8,30.04,North,0,4.0,0.0,5,0.00,,,0.00,733,WeatherHawk,2013-08-21 20:22:00,
2013-08-21 13:27:00,82.1,4.5,30.05,NE,43,4.0,0.0,5,0.00,,,0.00,757,WeatherHawk,2013-08-21 20:27:00,
2013-08-21 13:32:00,81.8,4.3,30.05,East,82,4.0,0.0,5,0.00,,,0.00,774,WeatherHawk,2013-08-21 20:32:00,
2013-08-21 13:37:00,80.8,3.6,30.04,NNW,344,5.0,0.0,5,0.00,,,0.00,342,WeatherHawk,2013-08-21 20:37:00,
2013-08-21 13:42:00,81.3,4.0,30.04,North,350,5.0,0.0,5,0.00,,,0.00,325,WeatherHawk,2013-08-21 20:42:00,
2013-08-21 13:47:00,80.4,3.3,30.04,NNE,18,1.0,0.0,5,0.00,,,0.00,285,WeatherHawk,2013-08-21 20:47:00,
2013-08-21 13:52:00,82.2,4.6,30.04,NNW,341,0.0,0.0,5,0.00,,,0.00,267,WeatherHawk,2013-08-21 20:52:00,
2013-08-21 13:57:00,80.9,3.7,30.04,SE,136,0.0,0.0,5,0.00,,,0.00,300,WeatherHawk,2013-08-21 20:57:00,
2013-08-21 14:02:00,80.9,3.7,30.03,West,266,3.0,0.0,5,0.00,,,0.00,297,WeatherHawk,2013-08-21 21:02:00,
2013-08-21 14:07:00,82.0,4.4,30.04,NNW,340,1.0,0.0,5,0.00,,,0.00,399,WeatherHawk,2013-08-21 21:07:00,
2013-08-21 14:12:00,82.3,4.6,30.04,ENE,73,0.0,0.0,5,0.00,,,0.00,344,WeatherHawk,2013-08-21 21:12:00,
2013-08-21 14:17:00,83.0,5.2,30.04,NNW,336,6.0,0.0,5,0.00,,,0.00,313,WeatherHawk,2013-08-21 21:17:00,
2013-08-21 14:22:00,80.7,3.5,30.03,West,268,6.0,0.0,5,0.00,,,0.00,296,WeatherHawk,2013-08-21 21:22:00,
2013-08-21 14:27:00,82.2,4.6,30.04,NW,324,7.0,0.0,5,0.00,,,0.00,316,WeatherHawk,2013-08-21 21:27:00,
2013-08-21 14:33:00,81.7,4.2,30.03,NW,323,3.0,0.0,5,0.00,,,0.00,327,WeatherHawk,2013-08-21 21:33:00,
2013-08-21 14:38:00,84.2,6.0,30.03,North,1,6.0,0.0,5,0.00,,,0.00,340,WeatherHawk,2013-08-21 21:38:00,
2013-08-21 14:43:00,82.1,4.5,30.04,NE,39,7.0,0.0,5,0.00,,,0.00,334,WeatherHawk,2013-08-21 21:43:00,
2013-08-21 14:48:00,83.6,5.5,30.02,NNE,33,0.0,0.0,5,0.00,,,0.00,313,WeatherHawk,2013-08-21 21:48:00,
2013-08-21 14:53:00,81.9,4.4,30.02,NW,322,6.0,0.0,5,0.00,,,0.00,231,WeatherHawk,2013-08-21 21:53:00,
2013-08-21 15:01:00,81.7,4.2,30.02,NW,312,5.0,0.0,5,0.00,,,0.00,199,WeatherHawk,2013-08-21 22:01:00,
2013-08-21 15:07:00,82.4,4.7,30.01,NW,319,7.0,0.0,5,0.00,,,0.00,215,WeatherHawk,2013-08-21 22:07:00,
2013-08-21 15:12:00,83.0,5.1,30.02,NNW,333,9.0,0.0,5,0.00,,,0.00,215,WeatherHawk,2013-08-21 22:12:00,
2013-08-21 15:17:00,82.8,5.0,30.01,NW,324,6.0,0.0,5,0.00,,,0.00,339,WeatherHawk,2013-08-21 22:17:00,
2013-08-21 15:22:00,82.2,4.6,30.02,NW,325,11.0,0.0,5,0.00,,,0.00,255,WeatherHawk,2013-08-21 22:22:00,
2013-08-21 15:27:00,82.7,4.9,30.02,NNW,329,6.0,0.0,5,0.00,,,0.00,286,WeatherHawk,2013-08-21 22:27:00,
2013-08-21 15:32:00,82.4,4.7,30.01,North,0,8.0,0.0,5,0.00,,,0.00,539,WeatherHawk,2013-08-21 22:32:00,
2013-08-21 15:37:00,81.8,4.3,30.00,WNW,289,13.0,0.0,5,0.00,,,0.00,631,WeatherHawk,2013-08-21 22:37:00,
2013-08-21 15:42:00,84.1,5.9,30.00,NNW,335,14.0,0.0,5,0.00,,,0.00,511,WeatherHawk,2013-08-21 22:42:00,
2013-08-21 15:47:00,83.0,5.2,30.00,North,351,10.0,0.0,5,0.00,,,0.00,314,WeatherHawk,2013-08-21 22:47:00,
2013-08-21 15:53:00,81.8,4.3,30.00,NW,307,8.0,0.0,5,0.00,,,0.00,327,WeatherHawk,2013-08-21 22:53:00,
2013-08-21 15:58:00,83.6,5.6,30.00,NW,326,11.0,0.0,5,0.00,,,0.00,540,WeatherHawk,2013-08-21 22:58:00,
2013-08-21 16:03:00,82.7,4.9,30.00,NNE,16,7.0,0.0,5,0.00,,,0.00,515,WeatherHawk,2013-08-21 23:03:00,
2013-08-21 16:08:00,83.2,5.3,29.99,NNW,327,11.0,0.0,5,0.00,,,0.00,287,WeatherHawk,2013-08-21 23:08:00,
2013-08-21 16:13:00,83.2,5.3,30.00,NW,321,8.0,0.0,5,0.00,,,0.00,495,WeatherHawk,2013-08-21 23:13:00,
2013-08-21 16:18:00,86.8,7.8,29.99,NW,311,11.0,0.0,5,0.00,,,0.00,484,WeatherHawk,2013-08-21 23:18:00,
2013-08-21 16:23:00,83.2,5.3,29.99,NW,306,12.0,0.0,5,0.00,,,0.00,471,WeatherHawk,2013-08-21 23:23:00,
2013-08-21 16:28:00,84.0,5.9,29.99,NNW,332,9.0,0.0,5,0.00,,,0.00,451,WeatherHawk,2013-08-21 23:28:00,
2013-08-21 16:33:00,84.5,6.2,29.99,NNW,341,5.0,0.0,5,0.00,,,0.00,218,WeatherHawk,2013-08-21 23:33:00,
2013-08-21 16:38:00,82.8,5.0,29.99,NW,324,4.0,0.0,5,0.00,,,0.00,231,WeatherHawk,2013-08-21 23:38:00,
2013-08-21 16:43:00,83.6,5.6,29.98,NNW,331,12.0,0.0,5,0.00,,,0.00,281,WeatherHawk,2013-08-21 23:43:00,
2013-08-21 16:48:00,84.0,5.8,29.99,NNE,12,8.0,0.0,5,0.00,,,0.00,400,WeatherHawk,2013-08-21 23:48:00,
2013-08-21 16:53:00,83.2,5.3,29.99,NW,323,14.0,0.0,5,0.00,,,0.00,391,WeatherHawk,2013-08-21 23:53:00,
2013-08-21 16:58:00,86.1,7.3,29.97,NW,318,15.0,0.0,5,0.00,,,0.00,433,WeatherHawk,2013-08-21 23:58:00,
2013-08-21 17:03:00,85.5,6.9,29.98,NW,310,11.0,0.0,5,0.00,,,0.00,409,WeatherHawk,2013-08-22 00:03:00,
2013-08-21 17:08:00,84.9,6.5,29.98,NW,309,17.0,0.0,5,0.00,,,0.00,409,WeatherHawk,2013-08-22 00:08:00,
2013-08-21 17:13:00,85.0,6.5,29.97,NNW,329,10.0,0.0,5,0.00,,,0.00,366,WeatherHawk,2013-08-22 00:13:00,
2013-08-21 17:18:00,85.1,6.6,29.98,NNW,343,15.0,0.0,5,0.00,,,0.00,344,WeatherHawk,2013-08-22 00:18:00,
2013-08-21 17:23:00,84.3,6.1,29.98,North,9,9.0,0.0,5,0.00,,,0.00,220,WeatherHawk,2013-08-22 00:23:00,
2013-08-21 17:28:00,83.4,5.5,29.98,NW,315,6.0,0.0,5,0.00,,,0.00,178,WeatherHawk,2013-08-22 00:28:00,
2013-08-21 17:33:00,83.6,5.6,29.98,NNW,346,9.0,0.0,5,0.00,,,0.00,166,WeatherHawk,2013-08-22 00:33:00,
2013-08-21 17:38:00,83.5,5.5,29.97,ENE,59,9.0,0.0,5,0.00,,,0.00,215,WeatherHawk,2013-08-22 00:38:00,
2013-08-21 17:43:00,85.3,6.7,29.98,NW,311,9.0,0.0,5,0.00,,,0.00,189,WeatherHawk,2013-08-22 00:43:00,
2013-08-21 17:48:00,84.8,6.4,29.98,NNW,331,10.0,0.0,5,0.00,,,0.00,257,WeatherHawk,2013-08-22 00:48:00,
2013-08-21 17:53:00,83.8,5.7,29.98,NNW,335,13.0,0.0,5,0.00,,,0.00,269,WeatherHawk,2013-08-22 00:53:00,
2013-08-21 17:58:00,84.2,6.0,29.97,NW,306,14.0,0.0,5,0.00,,,0.00,240,WeatherHawk,2013-08-22 00:58:00,
2013-08-21 18:03:00,83.4,5.4,29.97,NW,305,14.0,0.0,5,0.00,,,0.00,227,WeatherHawk,2013-08-22 01:03:00,
2013-08-21 18:08:00,83.6,5.6,29.98,NNW,340,13.0,0.0,5,0.00,,,0.00,188,WeatherHawk,2013-08-22 01:08:00,
2013-08-21 18:13:00,82.8,5.0,29.97,NNW,330,15.0,0.0,5,0.00,,,0.00,196,WeatherHawk,2013-08-22 01:13:00,
2013-08-21 18:18:00,82.7,4.9,29.97,NNW,340,15.0,0.0,5,0.00,,,0.00,201,WeatherHawk,2013-08-22 01:18:00,
2013-08-21 18:23:00,82.7,4.9,29.97,NNW,328,19.0,0.0,5,0.00,,,0.00,159,WeatherHawk,2013-08-22 01:23:00,
2013-08-21 18:28:00,82.2,4.6,29.97,NW,309,16.0,0.0,5,0.00,,,0.00,130,WeatherHawk,2013-08-22 01:28:00,
2013-08-21 18:33:00,82.2,4.6,29.98,NNW,342,12.0,0.0,5,0.00,,,0.00,90,WeatherHawk,2013-08-22 01:33:00,
2013-08-21 18:38:00,82.4,4.7,29.97,NW,320,13.0,0.0,5,0.00,,,0.00,117,WeatherHawk,2013-08-22 01:38:00,
2013-08-21 18:43:00,82.2,4.6,29.97,NNW,327,13.0,0.0,5,0.00,,,0.00,111,WeatherHawk,2013-08-22 01:43:00,
2013-08-21 18:48:00,82.5,4.8,29.97,NW,317,15.0,0.0,5,0.00,,,0.00,113,WeatherHawk,2013-08-22 01:48:00,
2013-08-21 18:53:00,81.9,4.4,29.98,NW,316,13.0,0.0,5,0.00,,,0.00,103,WeatherHawk,2013-08-22 01:53:00,
2013-08-21 18:58:00,81.6,4.2,29.98,WNW,291,12.0,0.0,5,0.00,,,0.00,81,WeatherHawk,2013-08-22 01:58:00,
2013-08-21 19:04:00,81.3,4.0,29.98,NNW,340,8.0,0.0,5,0.00,,,0.00,56,WeatherHawk,2013-08-22 02:04:00,
2013-08-21 19:09:00,81.3,4.0,29.99,West,278,7.0,0.0,5,0.00,,,0.00,61,WeatherHawk,2013-08-22 02:09:00,
2013-08-21 19:14:00,81.3,4.0,29.99,NW,307,8.0,0.0,5,0.00,,,0.00,51,WeatherHawk,2013-08-22 02:14:00,
2013-08-21 19:19:00,81.0,3.7,29.99,NW,308,11.0,0.0,5,0.00,,,0.00,40,WeatherHawk,2013-08-22 02:19:00,
2013-08-21 19:24:00,80.7,3.6,29.99,NNW,328,8.0,0.0,5,0.00,,,0.00,29,WeatherHawk,2013-08-22 02:24:00,
2013-08-21 19:29:00,80.9,3.7,29.99,NNW,341,7.0,0.0,5,0.00,,,0.00,23,WeatherHawk,2013-08-22 02:29:00,
2013-08-21 19:34:00,80.4,3.4,29.98,NW,305,9.0,0.0,5,0.00,,,0.00,17,WeatherHawk,2013-08-22 02:34:00,
2013-08-21 19:39:00,80.2,3.2,29.99,NW,324,11.0,0.0,5,0.00,,,0.00,19,WeatherHawk,2013-08-22 02:39:00,
2013-08-21 19:44:00,80.0,3.0,29.98,NW,308,9.0,0.0,5,0.00,,,0.00,13,WeatherHawk,2013-08-22 02:44:00,
2013-08-21 19:49:00,80.0,3.0,29.99,NNW,335,13.0,0.0,5,0.00,,,0.00,10,WeatherHawk,2013-08-22 02:49:00,
2013-08-21 19:54:00,80.2,3.2,29.99,NW,325,15.0,0.0,5,0.00,,,0.00,7,WeatherHawk,2013-08-22 02:54:00,
2013-08-21 19:59:00,79.6,2.8,29.99,NNW,348,12.0,0.0,5,0.00,,,0.00,6,WeatherHawk,2013-08-22 02:59:00,
2013-08-21 20:04:00,79.6,2.8,29.99,NNW,343,12.0,0.0,5,0.00,,,0.00,5,WeatherHawk,2013-08-22 03:04:00,
2013-08-21 20:10:00,79.5,2.7,29.99,NNW,347,12.0,0.0,5,0.00,,,0.00,3,WeatherHawk,2013-08-22 03:10:00,
2013-08-21 20:15:00,78.8,2.2,29.99,NW,322,9.0,0.0,5,0.00,,,0.00,2,WeatherHawk,2013-08-22 03:15:00,
2013-08-21 20:20:00,79.2,2.5,30.01,NNW,329,13.0,0.0,5,0.00,,,0.00,1,WeatherHawk,2013-08-22 03:20:00,
2013-08-21 20:25:00,78.9,2.3,30.00,WNW,299,7.0,0.0,5,0.00,,,0.00,0,WeatherHawk,2013-08-22 03:25:00,
2013-08-21 20:30:00,78.8,2.2,30.00,NNW,334,11.0,0.0,5,0.00,,,0.00,0,WeatherHawk,2013-08-22 03:30:00,
2013-08-21 20:35:00,77.7,1.4,30.00,NW,315,8.0,0.0,5,0.00,,,0.00,0,WeatherHawk,2013-08-22 03:35:00,
2013-08-21 20:40:00,77.6,1.4,30.00,NW,314,7.0,0.0,5,0.00,,,0.00,0,WeatherHawk,2013-08-22 03:40:00,
2013-08-21 20:45:00,78.2,1.8,30.00,NNW,337,8.0,0.0,5,0.00,,,0.00,0,WeatherHawk,2013-08-22 03:45:00,
2013-08-21 20:50:00,77.5,1.3,30.01,NNW,341,9.0,0.0,5,0.00,,,0.00,0,WeatherHawk,2013-08-22 03:50:00,
2013-08-21 20:55:00,77.9,1.6,30.00,NNW,332,10.0,0.0,5,0.00,,,0.00,0,WeatherHawk,2013-08-22 03:55:00,
2013-08-21 21:00:00,77.3,1.1,30.01,WNW,298,9.0,0.0,5,0.00,,,0.00,0,WeatherHawk,2013-08-22 04:00:00,
2013-08-21 21:01:00,77.4,1.2,30.00,NW,314,9.0,0.0,5,0.00,,,0.00,0,WeatherHawk,2013-08-22 04:01:00,
2013-08-21 21:03:00,77.5,1.3,30.01,West,280,9.0,0.0,5,0.00,,,0.00,0,WeatherHawk,2013-08-22 04:03:00,
2013-08-21 21:05:00,76.6,0.7,30.01,NW,324,8.0,0.0,5,0.00,,,0.00,0,WeatherHawk,2013-08-22 04:05:00,
2013-08-21 21:11:00,77.2,1.1,30.01,NW,310,10.0,0.0,5,0.00,,,0.00,0,WeatherHawk,2013-08-22 04:11:00,
2013-08-21 21:17:00,76.6,0.7,30.01,NW,325,5.0,0.0,5,0.00,,,0.00,1,WeatherHawk,2013-08-22 04:17:00,
2013-08-21 21:22:00,76.7,0.7,30.01,NW,317,5.0,0.0,5,0.00,,,0.00,0,WeatherHawk,2013-08-22 04:22:00,
2013-08-21 21:27:00,76.8,0.8,30.01,NW,304,8.0,0.0,5,0.00,,,0.00,0,WeatherHawk,2013-08-22 04:27:00,
2013-08-21 21:32:00,76.4,0.5,30.01,NW,326,7.0,0.0,5,0.00,,,0.00,0,WeatherHawk,2013-08-22 04:32:00,
2013-08-21 21:37:00,76.2,0.4,30.02,NW,309,7.0,0.0,5,0.00,,,0.00,0,WeatherHawk,2013-08-22 04:37:00,
2013-08-21 21:42:00,75.4,-0.2,30.01,NW,315,6.0,0.0,5,0.00,,,0.00,0,WeatherHawk,2013-08-22 04:42:00,
2013-08-21 21:47:00,75.0,-0.4,30.01,NW,318,4.0,0.0,5,0.00,,,0.00,0,WeatherHawk,2013-08-22 04:47:00,
2013-08-21 21:52:00,76.3,0.4,30.02,NNW,340,7.0,0.0,5,0.00,,,0.00,0,WeatherHawk,2013-08-22 04:52:00,
2013-08-21 21:57:00,75.5,-0.1,30.02,NNW,331,6.0,0.0,5,0.00,,,0.00,0,WeatherHawk,2013-08-22 04:57:00,
2013-08-21 22:02:00,75.5,-0.1,30.02,West,267,6.0,0.0,5,0.00,,,0.00,0,WeatherHawk,2013-08-22 05:02:00,
2013-08-21 22:07:00,74.3,-1.0,30.02,NW,320,2.0,0.0,5,0.00,,,0.00,0,WeatherHawk,2013-08-22 05:07:00,
2013-08-21 22:12:00,74.2,-1.1,30.02,WNW,284,0.0,0.0,5,0.00,,,0.00,1,WeatherHawk,2013-08-22 05:12:00,
2013-08-21 22:17:00,74.7,-0.7,30.02,West,273,3.0,0.0,5,0.00,,,0.00,0,WeatherHawk,2013-08-22 05:17:00,
2013-08-21 22:22:00,73.9,-1.3,30.03,West,265,2.0,0.0,5,0.00,,,0.00,0,WeatherHawk,2013-08-22 05:22:00,
2013-08-21 22:27:00,73.7,-1.4,30.03,NW,315,0.0,0.0,5,0.00,,,0.00,0,WeatherHawk,2013-08-22 05:27:00,
2013-08-21 22:33:00,72.6,-2.2,30.03,WSW,254,0.0,0.0,5,0.00,,,0.00,0,WeatherHawk,2013-08-22 05:33:00,
2013-08-21 22:38:00,74.2,-1.1,30.03,WNW,287,3.0,0.0,5,0.00,,,0.00,0,WeatherHawk,2013-08-22 05:38:00,
2013-08-21 22:43:00,73.9,-1.2,30.03,West,272,3.0,0.0,5,0.00,,,0.00,1,WeatherHawk,2013-08-22 05:43:00,
2013-08-21 22:48:00,72.4,-2.3,30.03,WNW,286,0.0,0.0,5,0.00,,,0.00,0,WeatherHawk,2013-08-22 05:48:00,
2013-08-21 22:53:00,71.6,4.3,30.03,WSW,258,0.0,0.0,7,0.00,,,0.00,0,WeatherHawk,2013-08-22 05:53:00,
2013-08-21 22:58:00,71.9,4.5,30.03,WSW,244,0.0,0.0,7,0.00,,,0.00,0,WeatherHawk,2013-08-22 05:58:00,
2013-08-21 23:03:00,72.2,4.7,30.03,SW,230,1.0,0.0,7,0.00,,,0.00,0,WeatherHawk,2013-08-22 06:03:00,
2013-08-21 23:08:00,71.9,7.4,30.03,SW,221,0.0,0.0,8,0.00,,,0.00,0,WeatherHawk,2013-08-22 06:08:00,
2013-08-21 23:13:00,72.9,8.1,30.04,West,263,1.0,0.0,8,0.00,,,0.00,0,WeatherHawk,2013-08-22 06:13:00,
2013-08-21 23:18:00,72.1,7.6,30.03,West,268,0.0,0.0,8,0.00,,,0.00,0,WeatherHawk,2013-08-22 06:18:00,
2013-08-21 23:23:00,72.1,4.7,30.03,WNW,283,0.0,0.0,7,0.00,,,0.00,0,WeatherHawk,2013-08-22 06:23:00,
2013-08-21 23:28:00,71.1,3.9,30.03,SSW,210,0.0,0.0,7,0.00,,,0.00,0,WeatherHawk,2013-08-22 06:28:00,
2013-08-21 23:33:00,71.4,4.1,30.03,WSW,257,0.0,0.0,7,0.00,,,0.00,0,WeatherHawk,2013-08-22 06:33:00,
2013-08-21 23:38:00,71.2,4.0,30.03,SW,235,0.0,0.0,7,0.00,,,0.00,0,WeatherHawk,2013-08-22 06:38:00,
2013-08-21 23:43:00,71.1,6.8,30.02,NW,310,0.0,0.0,8,0.00,,,0.00,0,WeatherHawk,2013-08-22 06:43:00,
2013-08-21 23:48:00,70.4,6.3,30.03,South,190,0.0,0.0,8,0.00,,,0.00,0,WeatherHawk,2013-08-22 06:48:00,
2013-08-21 23:54:00,71.3,9.6,30.02,WSW,250,0.0,0.0,9,0.00,,,0.00,0,WeatherHawk,2013-08-22 06:54:00,
2013-08-21 23:59:00,70.7,6.5,30.03,WSW,257,0.0,0.0,8,0.00,,,0.00,0,WeatherHawk,2013-08-22 06:59:00,